Meteo pe oră la Almese

Astăzi, 17 Ianuarie, Duminică

Timp Temperatura Precipitaţii Vânt Presiune Umiditate
00:00 -2°C° 0 mm 2 m/s 705 mmHg 77%
01:00 -2°C° 0.1 mm 2 m/s 705 mmHg 80%
02:00 -1°C° 0.1 mm 2 m/s 704 mmHg 83%
03:00 +1°C° 0.1 mm 1 m/s 703 mmHg 85%
04:00 -1°C° 0.1 mm 2 m/s 703 mmHg 85%
05:00 -1°C° 0.1 mm 2 m/s 703 mmHg 86%
06:00 -1°C° 0.1 mm 2 m/s 703 mmHg 86%
07:00 -1°C° 0 mm 2 m/s 703 mmHg 83%
08:00 +1°C° 0 mm 2 m/s 703 mmHg 80%
09:00 +2°C° 0 mm 2 m/s 703 mmHg 78%
10:00 +3°C° 0 mm 2 m/s 703 mmHg 75%
11:00 +2°C° 0 mm 3 m/s 703 mmHg 72%
12:00 +3°C° 0 mm 3 m/s 703 mmHg 68%
13:00 +3°C° 0 mm 3 m/s 703 mmHg 70%
14:00 +3°C° 0 mm 2 m/s 703 mmHg 72%
15:00 +3°C° 0 mm 2 m/s 703 mmHg 74%
16:00 +2°C° 0 mm 2 m/s 704 mmHg 73%
17:00 0°C° 0 mm 3 m/s 705 mmHg 72%
18:00 -1°C° 0 mm 3 m/s 705 mmHg 71%
19:00 -1°C° 0 mm 3 m/s 706 mmHg 69%
20:00 -2°C° 0 mm 3 m/s 707 mmHg 68%
21:00 -2°C° 0 mm 3 m/s 707 mmHg 67%
22:00 -2°C° 0 mm 3 m/s 708 mmHg 66%
23:00 -2°C° 0 mm 3 m/s 708 mmHg 66%

Mâine, 18 Ianuarie, Luni

Timp Temperatura Precipitaţii Vânt Presiune Umiditate
00:00 -4°C° 0 mm 3 m/s 708 mmHg 65%
01:00 -4°C° 0 mm 3 m/s 708 mmHg 63%
02:00 -4°C° 0 mm 3 m/s 708 mmHg 60%
03:00 -3°C° 0 mm 2 m/s 708 mmHg 58%
04:00 -3°C° 0 mm 2 m/s 708 mmHg 57%
05:00 -3°C° 0 mm 2 m/s 709 mmHg 55%
06:00 -3°C° 0 mm 2 m/s 709 mmHg 54%
07:00 -2°C° 0 mm 2 m/s 709 mmHg 53%
08:00 +1°C° 0 mm 1 m/s 710 mmHg 52%
09:00 +2°C° 0 mm 1 m/s 710 mmHg 51%
10:00 +3°C° 0 mm 1 m/s 710 mmHg 51%
11:00 +4°C° 0 mm 1 m/s 710 mmHg 50%
12:00 +5°C° 0 mm 1 m/s 710 mmHg 49%
13:00 +4°C° 0 mm 1 m/s 709 mmHg 53%
14:00 +4°C° 0 mm 1 m/s 709 mmHg 57%
15:00 +3°C° 0 mm 1 m/s 709 mmHg 62%
16:00 +2°C° 0 mm 1 m/s 709 mmHg 61%
17:00 +1°C° 0 mm 1 m/s 710 mmHg 60%
18:00 0°C° 0 mm 1 m/s 710 mmHg 60%
19:00 0°C° 0 mm 1 m/s 710 mmHg 59%
20:00 0°C° 0 mm 1 m/s 710 mmHg 58%
21:00 0°C° 0 mm 1 m/s 710 mmHg 57%
22:00 0°C° 0 mm 1 m/s 710 mmHg 57%
23:00 0°C° 0 mm 1 m/s 710 mmHg 58%

Poimâine, 19 Ianuarie, Marţi

Timp Temperatura Precipitaţii Vânt Presiune Umiditate
00:00 0°C° 0 mm 1 m/s 710 mmHg 58%
01:00 -1°C° 0 mm 1 m/s 710 mmHg 59%
02:00 -1°C° 0 mm 1 m/s 709 mmHg 60%
03:00 -1°C° 0 mm 1 m/s 709 mmHg 61%
04:00 -1°C° 0 mm 1 m/s 709 mmHg 61%
05:00 -1°C° 0 mm 1 m/s 709 mmHg 61%
06:00 -1°C° 0 mm 1 m/s 709 mmHg 61%
07:00 0°C° 0 mm 1 m/s 709 mmHg 60%
08:00 0°C° 0 mm 0 m/s 709 mmHg 60%
09:00 +1°C° 0 mm 0 m/s 709 mmHg 59%
10:00 +2°C° 0 mm 0 m/s 709 mmHg 58%
11:00 +4°C° 0 mm 1 m/s 709 mmHg 58%
12:00 +5°C° 0 mm 1 m/s 709 mmHg 58%
13:00 +4°C° 0 mm 1 m/s 708 mmHg 61%
14:00 +4°C° 0 mm 1 m/s 708 mmHg 64%
15:00 +3°C° 0 mm 1 m/s 707 mmHg 67%
16:00 +2°C° 0 mm 1 m/s 707 mmHg 68%
17:00 +1°C° 0 mm 1 m/s 707 mmHg 69%
18:00 0°C° 0 mm 1 m/s 708 mmHg 69%
19:00 0°C° 0 mm 1 m/s 707 mmHg 68%
20:00 0°C° 0 mm 1 m/s 707 mmHg 66%
21:00 0°C° 0 mm 1 m/s 707 mmHg 65%
22:00 0°C° 0 mm 1 m/s 707 mmHg 63%
23:00 0°C° 0 mm 1 m/s 707 mmHg 62%

20 Ianuarie, Miercuri

Timp Temperatura Precipitaţii Vânt Presiune Umiditate
00:00 -1°C° 0 mm 1 m/s 706 mmHg 60%
01:00 -1°C° 0 mm 1 m/s 706 mmHg 60%
02:00 -1°C° 0 mm 1 m/s 706 mmHg 60%
03:00 -1°C° 0 mm 1 m/s 705 mmHg 60%
04:00 0°C° 0 mm 1 m/s 705 mmHg 62%
05:00 0°C° 0 mm 1 m/s 705 mmHg 63%
06:00 -1°C° 0 mm 0 m/s 705 mmHg 64%
07:00 0°C° 0 mm 0 m/s 705 mmHg 65%
08:00 0°C° 0 mm 0 m/s 705 mmHg 65%
09:00 +1°C° 0 mm 0 m/s 705 mmHg 66%
10:00 +1°C° 0 mm 0 m/s 705 mmHg 66%
11:00 +3°C° 0 mm 1 m/s 704 mmHg 65%
12:00 +4°C° 0 mm 1 m/s 704 mmHg 65%
13:00 +3°C° 0 mm 1 m/s 703 mmHg 68%
14:00 +3°C° 0 mm 1 m/s 703 mmHg 71%
15:00 +3°C° 0 mm 1 m/s 702 mmHg 74%
16:00 +2°C° 0 mm 1 m/s 702 mmHg 76%
17:00 0°C° 0 mm 0 m/s 702 mmHg 79%
18:00 0°C° 0 mm 0 m/s 702 mmHg 81%
19:00 0°C° 0 mm 0 m/s 702 mmHg 82%
20:00 0°C° 0 mm 0 m/s 701 mmHg 82%
21:00 -1°C° 0 mm 0 m/s 701 mmHg 83%
22:00 0°C° 0.3 mm 0 m/s 701 mmHg 87%
23:00 +1°C° 0.3 mm 1 m/s 700 mmHg 91%

21 Ianuarie, Joi

Timp Temperatura Precipitaţii Vânt Presiune Umiditate
00:00 +1°C° 0.3 mm 1 m/s 700 mmHg 94%
01:00 +1°C° 0.4 mm 1 m/s 700 mmHg 95%
02:00 +1°C° 0.4 mm 1 m/s 699 mmHg 95%
03:00 +1°C° 0.4 mm 1 m/s 699 mmHg 96%
04:00 +1°C° 0.3 mm 1 m/s 698 mmHg 96%
05:00 +1°C° 0.3 mm 1 m/s 698 mmHg 95%
06:00 +1°C° 0.3 mm 1 m/s 698 mmHg 95%
07:00 +1°C° 0.1 mm 0 m/s 698 mmHg 93%
08:00 +2°C° 0.1 mm 0 m/s 698 mmHg 91%
09:00 +2°C° 0.1 mm 0 m/s 698 mmHg 90%
10:00 +3°C° 0.2 mm 0 m/s 698 mmHg 89%
11:00 +4°C° 0.2 mm 1 m/s 698 mmHg 88%
12:00 +5°C° 0.2 mm 1 m/s 698 mmHg 88%
13:00 +5°C° 0 mm 1 m/s 698 mmHg 89%
14:00 +5°C° 0 mm 1 m/s 698 mmHg 90%
15:00 +5°C° 0 mm 1 m/s 697 mmHg 91%
16:00 +4°C° 0 mm 1 m/s 697 mmHg 90%
17:00 +3°C° 0 mm 1 m/s 697 mmHg 90%
18:00 +2°C° 0 mm 1 m/s 697 mmHg 89%
19:00 +2°C° 0 mm 1 m/s 697 mmHg 87%
20:00 +2°C° 0 mm 1 m/s 697 mmHg 86%
21:00 +2°C° 0 mm 1 m/s 697 mmHg 84%
22:00 +2°C° 0 mm 1 m/s 697 mmHg 84%
23:00 +2°C° 0 mm 1 m/s 696 mmHg 83%

22 Ianuarie, Vineri

Timp Temperatura Precipitaţii Vânt Presiune Umiditate
00:00 +2°C° 0 mm 1 m/s 696 mmHg 82%
01:00 +2°C° 0 mm 1 m/s 695 mmHg 81%
02:00 +1°C° 0 mm 1 m/s 695 mmHg 79%
03:00 +1°C° 0 mm 1 m/s 694 mmHg 77%
04:00 +1°C° 0 mm 1 m/s 694 mmHg 78%
05:00 +1°C° 0 mm 1 m/s 694 mmHg 78%
06:00 +1°C° 0 mm 1 m/s 693 mmHg 79%
07:00 +2°C° 0 mm 1 m/s 694 mmHg 78%
08:00 +2°C° 0 mm 0 m/s 694 mmHg 76%
09:00 +2°C° 0 mm 0 m/s 694 mmHg 75%
10:00 +3°C° 0 mm 0 m/s 693 mmHg 75%
11:00 +5°C° 0 mm 1 m/s 693 mmHg 74%
12:00 +6°C° 0 mm 1 m/s 693 mmHg 74%
13:00 +6°C° 0 mm 1 m/s 693 mmHg 77%
14:00 +4°C° 0 mm 0 m/s 692 mmHg 80%
15:00 +4°C° 0 mm 0 m/s 692 mmHg 83%
16:00 +4°C° 0 mm 1 m/s 693 mmHg 83%
17:00 +4°C° 0 mm 1 m/s 693 mmHg 82%
18:00 +2°C° 0 mm 2 m/s 693 mmHg 82%
19:00 +2°C° 0 mm 2 m/s 694 mmHg 80%
20:00 +2°C° 0 mm 2 m/s 695 mmHg 78%
21:00 +2°C° 0 mm 2 m/s 695 mmHg 76%
22:00 0°C° 0 mm 3 m/s 696 mmHg 75%
23:00 0°C° 0 mm 3 m/s 696 mmHg 73%
Arată mai mult

Formular de consimțământ

Meteoprog și furnizorii noștri de servicii pot stoca și accesa date personale, precum cookies, identificatori de dispozitiv sau alte tehnologii similare pe dispozitivul dumneavoastră și procesa astfel de date pentru a personaliza conținutul și reclamele, dar și pentru a oferi caracteristici de social media și pentru a analiza traficul.

  • Stocarea și/sau accesarea informațiilor pe dispozitivul dumneavoastră

    Cookies, identificatori de dispozitiv sau alte informații pot fi stocate sau accesate pe dispozitiv în scopurile indicate mai sus.

  • Reclame și conținut personalizat, evaluarea reclamelor și a conținutului, informații despre audiențe și dezvoltarea produselor

    Reclamele și conținutul pot fi personalizate pe baza unui profil. Pot fi adăugate date suplimentare pentru a personaliza mai bine reclamele și conținutul. Performanța reclamelor și conținutului poate fi măsurată. Pot fi obținute informații despre utilizatorii care au văzut reclamele și conținutul. Aceste date pot fi utilizate pentru a dezvolta sau îmbunătăți experiența utilizatorilor, sistemele și software-ul.

Dând clic pe ‘Sunt de acord’, permiteți utilizarea cookie-urilor menționate, a identificatorilor de dispozitiv, balizelor web sau altor tehnologii similare. Setările pot fi modificate din browser-ul dispozitivului dumneavoastră.

În anumite scopuri, interesele legitime pot prima asupra consimțământului. Puteți citi mai multe informații în acest sens în Politica privind Confidențialitatea Datelor și Cookie.